TimeMDT,TemperatureF,Dew PointF,Humidity,Sea Level PressureIn,VisibilityMPH,Wind Direction,Wind SpeedMPH,Gust SpeedMPH,PrecipitationIn,Events,Conditions,WindDirDegrees,DateUTC
12:22 AM,33.8,33.8,100,29.84,5.0,NE,5.8,-,0.01,Rain,Light Rain,50,2014-03-30 06:22:00
12:56 AM,34.0,34.0,100,29.75,8.0,Variable,3.5,-,0.01,,Overcast,0,2014-03-30 06:56:00
1:47 AM,35.6,33.8,93,29.81,3.0,WNW,3.5,-,0.03,Rain,Light Rain,290,2014-03-30 07:47:00
1:56 AM,34.9,34.0,97,29.73,3.0,Variable,3.5,-,0.04,Rain,Light Rain,0,2014-03-30 07:56:00
2:01 AM,35.6,33.8,93,29.80,3.0,Calm,Calm,-,0.00,Rain,Light Rain,0,2014-03-30 08:01:00
2:11 AM,35.6,33.8,93,29.80,4.0,SW,3.5,-,0.00,Rain,Light Rain,220,2014-03-30 08:11:00
2:22 AM,33.8,33.8,100,29.79,2.5,SW,3.5,-,0.00,Snow,Light Snow,230,2014-03-30 08:22:00
2:34 AM,33.8,33.8,100,29.78,3.0,Calm,Calm,-,0.01,Snow,Light Snow,0,2014-03-30 08:34:00
2:44 AM,33.8,33.8,100,29.78,3.0,Calm,Calm,-,0.01,Snow,Light Snow,0,2014-03-30 08:44:00
2:56 AM,32.9,32.9,100,29.71,4.0,Calm,Calm,-,0.01,,Overcast,0,2014-03-30 08:56:00
3:08 AM,33.8,33.8,100,29.76,2.0,Calm,Calm,-,0.01,Rain,Light Rain,0,2014-03-30 09:08:00
3:23 AM,33.8,33.8,100,29.75,5.0,ENE,4.6,-,0.02,Rain,Light Rain,70,2014-03-30 09:23:00
3:39 AM,33.8,33.8,100,29.74,6.0,Calm,Calm,-,0.02,Rain,Light Rain,0,2014-03-30 09:39:00
3:56 AM,32.9,32.9,100,29.66,7.0,Calm,Calm,-,0.02,Rain,Light Rain,0,2014-03-30 09:56:00
4:20 AM,33.8,33.8,100,29.72,1.8,WNW,8.1,-,0.00,,Overcast,300,2014-03-30 10:20:00
4:22 AM,33.8,33.8,100,29.72,0.8,WNW,9.2,-,0.00,,Overcast,300,2014-03-30 10:22:00
4:24 AM,32.0,32.0,100,29.72,0.5,NW,9.2,-,0.00,Fog,Fog,310,2014-03-30 10:24:00
4:27 AM,32.0,32.0,100,29.72,0.2,NW,9.2,-,0.00,Fog,Fog,320,2014-03-30 10:27:00
4:40 AM,33.8,33.8,100,29.71,0.8,North,8.1,-,0.00,,Overcast,350,2014-03-30 10:40:00
4:42 AM,33.8,33.8,100,29.71,1.2,North,8.1,-,0.00,,Overcast,360,2014-03-30 10:42:00
4:44 AM,33.8,33.8,100,29.71,2.0,North,6.9,-,0.00,,Overcast,10,2014-03-30 10:44:00
4:56 AM,32.9,32.9,100,29.67,7.0,NE,4.6,-,0.00,,Overcast,50,2014-03-30 10:56:00
5:15 AM,33.8,33.8,100,29.72,8.0,North,5.8,-,0.00,,Overcast,10,2014-03-30 11:15:00
5:40 AM,33.8,33.8,100,29.71,2.5,NNE,5.8,-,0.00,Snow,Light Snow,30,2014-03-30 11:40:00
5:48 AM,33.8,33.8,100,29.71,1.2,NNE,6.9,-,0.00,Snow,Light Snow,30,2014-03-30 11:48:00
5:56 AM,32.9,32.9,100,29.65,1.0,NNE,4.6,-,0.01,Snow,Light Snow,20,2014-03-30 11:56:00
6:04 AM,33.8,33.8,100,29.70,1.0,NNE,6.9,-,0.01,Snow,Light Snow,20,2014-03-30 12:04:00
6:19 AM,33.8,33.8,100,29.69,1.0,NNE,5.8,-,0.04,Snow,Light Snow,20,2014-03-30 12:19:00
6:38 AM,33.8,33.8,100,29.70,0.8,North,3.5,-,0.04,Snow,Light Snow,350,2014-03-30 12:38:00
6:56 AM,32.9,32.9,100,29.63,0.8,NNE,3.5,-,0.05,Snow,Light Snow,20,2014-03-30 12:56:00
7:15 AM,32.0,32.0,100,29.68,0.5,NNW,3.5,-,0.00,Fog-Snow,Snow,330,2014-03-30 13:15:00
7:56 AM,32.0,32.0,100,29.62,0.5,NNW,3.5,-,0.07,Fog-Snow,Light Snow,330,2014-03-30 13:56:00
8:06 AM,32.0,32.0,100,29.67,0.2,Calm,Calm,-,0.00,Fog-Snow,Snow,0,2014-03-30 14:06:00
8:17 AM,32.0,32.0,100,29.66,0.5,Calm,Calm,-,0.00,Fog-Snow,Light Snow,0,2014-03-30 14:17:00
8:56 AM,31.1,31.1,100,29.60,0.5,Calm,Calm,-,0.05,Fog-Snow,Light Snow,0,2014-03-30 14:56:00
9:15 AM,30.2,30.2,100,29.64,0.8,West,3.5,-,0.02,Snow,Light Snow,280,2014-03-30 15:15:00
9:34 AM,30.2,30.2,100,29.63,0.5,WSW,3.5,-,0.05,Fog-Snow,Light Snow,250,2014-03-30 15:34:00
9:49 AM,30.2,30.2,100,29.62,0.8,West,3.5,-,0.07,Snow,Light Snow,260,2014-03-30 15:49:00
9:56 AM,31.1,31.1,100,29.57,0.8,West,3.5,-,0.08,Snow,Light Snow,270,2014-03-30 15:56:00
10:08 AM,30.2,30.2,100,29.62,0.5,West,3.5,-,0.01,Fog-Snow,Light Snow,270,2014-03-30 16:08:00
10:34 AM,30.2,30.2,100,29.62,0.2,West,4.6,-,0.04,Fog-Snow,Light Snow,270,2014-03-30 16:34:00
10:56 AM,32.0,32.0,100,29.57,0.2,WNW,6.9,-,0.06,Fog-Snow,Light Snow,300,2014-03-30 16:56:00
11:48 AM,30.2,30.2,100,29.62,0.2,NW,9.2,-,0.11,Fog-Snow,Snow,320,2014-03-30 17:48:00
11:56 AM,31.1,31.1,100,29.57,0.2,NW,9.2,-,0.12,Fog-Snow,Snow,310,2014-03-30 17:56:00
12:20 PM,30.2,30.2,100,29.62,-9999.0,NW,8.1,-,0.04,Snow,Snow,310,2014-03-30 18:20:00
12:37 PM,30.2,30.2,100,29.62,0.2,NW,6.9,-,0.07,Fog-Snow,Snow,310,2014-03-30 18:37:00
12:56 PM,31.1,31.1,100,29.58,0.2,Calm,Calm,-,0.09,Fog-Snow,Light Snow,0,2014-03-30 18:56:00
1:39 PM,30.2,30.2,100,29.62,-9999.0,NW,3.5,-,0.05,,Overcast,310,2014-03-30 19:39:00
1:56 PM,31.1,31.1,100,29.58,-9999.0,NW,5.8,-,0.09,,Overcast,310,2014-03-30 19:56:00
2:36 PM,30.2,30.2,100,29.63,0.5,NW,6.9,-,0.05,Fog,Light Freezing Fog,310,2014-03-30 20:36:00
2:56 PM,31.1,31.1,100,29.60,0.5,WNW,6.9,-,0.07,Fog,Light Freezing Fog,290,2014-03-30 20:56:00
3:56 PM,31.1,31.1,100,29.61,0.8,WNW,13.8,-,0.04,Snow,Light Snow,300,2014-03-30 21:56:00
4:10 PM,30.2,30.2,100,29.65,0.5,WNW,15.0,-,0.00,Fog-Snow,Light Snow,300,2014-03-30 22:10:00
4:28 PM,30.2,30.2,100,29.65,0.8,WNW,12.7,-,0.00,Snow,Light Snow,300,2014-03-30 22:28:00
4:40 PM,30.2,30.2,100,29.66,0.8,WNW,15.0,-,0.01,Snow,Light Snow,300,2014-03-30 22:40:00
4:56 PM,31.1,31.1,100,29.62,0.8,WNW,17.3,-,0.01,Snow,Light Snow,300,2014-03-30 22:56:00
5:03 PM,30.2,30.2,100,29.66,0.8,WNW,16.1,-,0.00,Snow,Light Snow,300,2014-03-30 23:03:00
5:13 PM,30.2,30.2,100,29.65,1.0,NW,16.1,-,0.00,Snow,Light Snow,310,2014-03-30 23:13:00
5:24 PM,30.2,30.2,100,29.65,1.0,NW,18.4,-,0.00,Snow,Light Snow,310,2014-03-30 23:24:00
5:29 PM,30.2,30.2,100,29.66,1.2,NW,18.4,-,0.00,Snow,Light Snow,310,2014-03-30 23:29:00
5:48 PM,30.2,30.2,100,29.67,1.0,NW,16.1,-,0.00,Snow,Light Snow,310,2014-03-30 23:48:00
5:56 PM,30.0,30.0,100,29.64,1.0,WNW,17.3,-,0.00,Snow,Light Snow,300,2014-03-30 23:56:00
6:23 PM,30.2,30.2,100,29.68,1.0,NW,16.1,-,0.00,Snow,Light Snow,310,2014-03-31 00:23:00
6:56 PM,30.0,30.0,100,29.66,1.0,NW,16.1,-,0.00,Snow,Light Snow,310,2014-03-31 00:56:00
7:06 PM,30.2,30.2,100,29.70,1.2,WNW,12.7,-,0.00,Snow,Light Snow,300,2014-03-31 01:06:00
7:33 PM,30.2,30.2,100,29.71,0.8,WNW,16.1,-,0.00,Snow,Light Snow,300,2014-03-31 01:33:00
7:47 PM,30.2,30.2,100,29.72,1.0,WNW,17.3,-,0.00,Snow,Light Snow,300,2014-03-31 01:47:00
7:56 PM,29.1,29.1,100,29.71,1.2,WNW,15.0,-,0.00,Snow,Light Snow,300,2014-03-31 01:56:00
8:12 PM,30.2,30.2,100,29.74,1.8,WNW,15.0,-,0.00,Snow,Light Snow,300,2014-03-31 02:12:00
8:18 PM,28.4,28.4,100,29.74,2.0,WNW,16.1,-,0.00,Snow,Light Snow,300,2014-03-31 02:18:00
8:32 PM,28.4,28.4,100,29.75,1.8,WNW,15.0,-,0.00,Snow,Light Snow,300,2014-03-31 02:32:00
8:41 PM,28.4,28.4,100,29.75,2.5,WNW,13.8,-,0.00,Snow,Light Snow,290,2014-03-31 02:41:00
8:47 PM,28.4,28.4,100,29.76,3.0,WNW,15.0,-,0.00,Snow,Light Snow,290,2014-03-31 02:47:00
8:56 PM,29.1,29.1,100,29.75,3.0,WNW,15.0,-,0.00,Snow,Light Snow,300,2014-03-31 02:56:00
9:04 PM,28.4,28.4,100,29.77,3.0,WNW,16.1,-,0.00,Snow,Light Snow,300,2014-03-31 03:04:00
9:11 PM,28.4,28.4,100,29.77,4.0,WNW,16.1,-,0.00,Snow,Light Snow,300,2014-03-31 03:11:00
9:30 PM,28.4,28.4,100,29.78,4.0,NW,15.0,-,0.00,Snow,Light Snow,310,2014-03-31 03:30:00
9:40 PM,28.4,28.4,100,29.79,2.5,NW,16.1,-,0.00,Snow,Light Snow,310,2014-03-31 03:40:00
9:56 PM,29.1,29.1,100,29.78,3.0,WNW,17.3,-,0.00,Snow,Light Snow,300,2014-03-31 03:56:00
10:08 PM,28.4,28.4,100,29.80,2.5,WNW,17.3,-,0.00,Snow,Light Snow,300,2014-03-31 04:08:00
10:19 PM,28.4,28.4,100,29.81,1.8,WNW,16.1,-,0.00,Snow,Light Snow,300,2014-03-31 04:19:00
10:37 PM,28.4,28.4,100,29.82,1.8,NW,17.3,-,0.00,Snow,Light Snow,310,2014-03-31 04:37:00
10:46 PM,28.4,28.4,100,29.82,2.0,NW,15.0,-,0.00,Snow,Light Snow,310,2014-03-31 04:46:00
10:56 PM,29.1,29.1,100,29.81,2.0,NW,13.8,-,0.00,Snow,Light Snow,310,2014-03-31 04:56:00
11:06 PM,28.4,28.4,100,29.83,2.0,NW,11.5,-,0.00,Snow,Light Snow,320,2014-03-31 05:06:00
11:15 PM,28.4,28.4,100,29.84,2.0,NW,10.4,-,0.00,Snow,Light Snow,310,2014-03-31 05:15:00
11:26 PM,28.4,28.4,100,29.85,1.5,NW,11.5,-,0.00,Snow,Light Snow,310,2014-03-31 05:26:00
11:39 PM,28.4,28.4,100,29.85,2.0,WNW,12.7,-,0.00,Snow,Light Snow,300,2014-03-31 05:39:00
11:46 PM,28.4,28.4,100,29.86,1.8,WNW,12.7,-,0.00,Snow,Light Snow,300,2014-03-31 05:46:00
11:56 PM,29.1,29.1,100,29.85,1.8,WNW,17.3,-,0.00,Snow,Light Snow,300,2014-03-31 05:56:00